Pinedale, WY

10:01 AM MST on February 20, 2017 (GMT -0700)
Wenz

Weather History for KPNA - October, 2012

Change the Weather History Date:

Monday, October 15, 2012

  Actual Average (KBPI) Record (KBPI)
Temperature  
Mean Temperature 42 °F -  
Max Temperature 57 °F 54 °F 78 °F (1976)
Min Temperature 26 °F 20 °F 11 °F (1992)
Degree Days  
Heating Degree Days 24    
Moisture  
Dew Point 29 °F    
Average Humidity 67    
Maximum Humidity 100    
Minimum Humidity 36    
Precipitation  
Precipitation 0.00 in - - ()
Sea Level Pressure  
Sea Level Pressure 30.16 in    
Wind  
Wind Speed 7 mph (WNW)    
Max Wind Speed 24 mph    
Max Gust Speed 36 mph    
Visibility 10 miles    
Events      
Averages and records for this station are not official NWS values.
T = Trace of Precipitation, MM = Missing Value Source: NWS Daily Summary

Daily Weather History Graph

Daily Weather History Graph

Search for Another Location

Airport or City:

Trip Planner

Search our weather history database for the weather conditions in past years. The results will help you decide how hot, cold, wet, or windy it might be!

Date:

Astronomy

Oct. 15, 2012 Rise Set
Actual Time 7:33 AM MDT 6:35 PM MDT
Civil Twilight 7:04 AM MDT 7:04 PM MDT
Nautical Twilight 6:31 AM MDT 7:37 PM MDT
Astronomical Twilight 5:59 AM MDT 8:09 PM MDT
Moon 7:49 AM MDT (10/15) 6:35 PM MDT (10/15)
Length of Visible Light 11h 59m
Length of Day
11h 02m
New Moon, 0% of the Moon is Illuminated
Oct 15
New Moon
Oct 21
First Quarter
Oct 29
Full
Nov 6
Last Quarter
Nov 13
New

Hourly Weather History & Observations

Time (MDT) Temp. Windchill Dew Point Humidity Pressure Visibility Wind Dir Wind Speed Gust Speed Precip Events Conditions
12:15 AM 32.0 °F 26.4 °F 26.6 °F 80% 30.29 in 10.0 mi WNW 5.8 mph - N/A   Mostly Cloudy
12:35 AM 32.0 °F 28.7 °F 26.6 °F 80% 30.29 in 10.0 mi WNW 3.5 mph - N/A   Mostly Cloudy
12:55 AM 32.0 °F 25.6 °F 26.6 °F 80% 30.27 in 10.0 mi NW 6.9 mph - N/A   Scattered Clouds
1:15 AM 32.0 °F 25.6 °F 26.6 °F 80% 30.27 in 10.0 mi NW 6.9 mph - N/A   Clear
1:35 AM 32.0 °F 25.6 °F 26.6 °F 80% 30.27 in 10.0 mi NW 6.9 mph - N/A   Clear
1:55 AM 32.0 °F 26.4 °F 26.6 °F 80% 30.26 in 10.0 mi NW 5.8 mph - N/A   Clear
2:15 AM 32.0 °F 28.7 °F 26.6 °F 80% 30.26 in 10.0 mi NW 3.5 mph - N/A   Clear
2:35 AM 32.0 °F 27.5 °F 26.6 °F 80% 30.26 in 10.0 mi WNW 4.6 mph - N/A   Clear
2:55 AM 32.0 °F 26.4 °F 26.6 °F 80% 30.25 in 10.0 mi NW 5.8 mph - N/A   Clear
3:15 AM 32.0 °F 28.7 °F 26.6 °F 80% 30.24 in 10.0 mi WNW 3.5 mph - N/A   Clear
3:35 AM 30.2 °F 25.4 °F 26.6 °F 86% 30.23 in 10.0 mi West 4.6 mph - N/A   Clear
3:55 AM 32.0 °F 26.4 °F 26.6 °F 80% 30.22 in 10.0 mi West 5.8 mph - N/A   Clear
4:15 AM 30.2 °F 24.3 °F 26.6 °F 86% 30.22 in 10.0 mi WNW 5.8 mph - N/A   Clear
4:35 AM 32.0 °F 26.4 °F 26.6 °F 80% 30.21 in 10.0 mi NW 5.8 mph - N/A   Clear
4:55 AM 30.2 °F 26.7 °F 26.6 °F 86% 30.21 in 10.0 mi WSW 3.5 mph - N/A   Clear
5:15 AM 28.4 °F 23.3 °F 26.6 °F 93% 30.21 in 10.0 mi West 4.6 mph - N/A   Clear
5:35 AM 30.2 °F 25.4 °F 26.6 °F 86% 30.21 in 10.0 mi WNW 4.6 mph - N/A   Clear
6:35 AM 28.4 °F 21.2 °F 24.8 °F 86% 30.21 in 10.0 mi NW 6.9 mph - N/A   Clear
6:55 AM 26.6 °F 21.2 °F 24.8 °F 93% 30.21 in 10.0 mi NW 4.6 mph - N/A   Clear
7:35 AM 26.6 °F 21.2 °F 26.6 °F 100% 30.21 in 10.0 mi WNW 4.6 mph - N/A   Clear
7:55 AM 28.4 °F 22.2 °F 26.6 °F 93% 30.21 in 10.0 mi WNW 5.8 mph - N/A   Clear
8:15 AM 28.4 °F 24.6 °F 26.6 °F 93% 30.21 in 10.0 mi West 3.5 mph - N/A   Clear
8:55 AM 32.0 °F 27.5 °F 28.4 °F 87% 30.21 in 10.0 mi WNW 4.6 mph - N/A   Clear
9:15 AM 35.6 °F 32.8 °F 28.4 °F 75% 30.20 in 10.0 mi WNW 3.5 mph - N/A   Clear
9:35 AM 41.0 °F - 30.2 °F 65% 30.20 in 10.0 mi Calm Calm - N/A   Clear
9:55 AM 42.8 °F - 30.2 °F 61% 30.20 in 10.0 mi Calm Calm - N/A   Clear
10:35 AM 44.6 °F 43.1 °F 28.4 °F 53% 30.20 in 10.0 mi SE 3.5 mph - N/A   Clear
10:55 AM 44.6 °F 43.1 °F 30.2 °F 57% 30.19 in 10.0 mi South 3.5 mph - N/A   Clear
11:15 AM 46.4 °F 45.2 °F 30.2 °F 53% 30.19 in 10.0 mi SE 3.5 mph - N/A   Clear
11:35 AM 46.4 °F 45.2 °F 30.2 °F 53% 30.17 in 10.0 mi East 3.5 mph - N/A   Clear
12:15 PM 51.8 °F - 32.0 °F 47% 30.15 in 10.0 mi SE 5.8 mph - N/A   Clear
12:35 PM 51.8 °F - 30.2 °F 44% 30.15 in 10.0 mi SSE 4.6 mph - N/A   Mostly Cloudy
12:55 PM 53.6 °F - 30.2 °F 41% 30.15 in 10.0 mi ESE 4.6 mph - N/A   Overcast
1:15 PM 51.8 °F - 30.2 °F 44% 30.14 in 10.0 mi Calm Calm - N/A   Overcast
1:35 PM 51.8 °F - 30.2 °F 44% 30.13 in 10.0 mi North 3.5 mph - N/A   Overcast
1:55 PM 53.6 °F - 32.0 °F 44% 30.13 in 10.0 mi West 10.4 mph 17.3 mph N/A   Overcast
2:15 PM 53.6 °F - 32.0 °F 44% 30.12 in 10.0 mi West 12.7 mph 21.9 mph N/A   Overcast
2:35 PM 55.4 °F - 32.0 °F 41% 30.11 in 10.0 mi WNW 19.6 mph 26.5 mph N/A   Overcast
2:55 PM 55.4 °F - 32.0 °F 41% 30.11 in 10.0 mi WNW 17.3 mph 23.0 mph N/A   Overcast
3:15 PM 55.4 °F - 32.0 °F 41% 30.09 in 10.0 mi West 21.9 mph 27.6 mph N/A   Overcast
3:35 PM 55.4 °F - 30.2 °F 38% 30.09 in 10.0 mi West 23.0 mph 35.7 mph N/A   Mostly Cloudy
3:55 PM 57.2 °F - 30.2 °F 36% 30.10 in 10.0 mi WNW 24.2 mph 35.7 mph N/A   Mostly Cloudy
4:15 PM 55.4 °F - 32.0 °F 41% 30.09 in 10.0 mi WNW 21.9 mph 29.9 mph N/A   Mostly Cloudy
4:35 PM 57.2 °F - 32.0 °F 38% 30.10 in 10.0 mi WNW 21.9 mph 28.8 mph N/A   Scattered Clouds
5:15 PM 55.4 °F - 30.2 °F 38% 30.09 in 10.0 mi West 18.4 mph 23.0 mph N/A   Scattered Clouds
5:35 PM 55.4 °F - 30.2 °F 38% 30.09 in 10.0 mi West 18.4 mph 25.3 mph N/A   Scattered Clouds
5:55 PM 53.6 °F - 30.2 °F 41% 30.09 in 10.0 mi West 18.4 mph 24.2 mph N/A   Clear
6:15 PM 53.6 °F - 32.0 °F 44% 30.09 in 10.0 mi WNW 15.0 mph 20.7 mph N/A   Scattered Clouds
6:35 PM 51.8 °F - 32.0 °F 47% 30.10 in 10.0 mi WNW 19.6 mph 23.0 mph N/A   Mostly Cloudy
6:55 PM 50.0 °F - 32.0 °F 50% 30.10 in 10.0 mi WNW 13.8 mph - N/A   Mostly Cloudy
7:15 PM 46.4 °F 41.5 °F 32.0 °F 57% 30.10 in 10.0 mi West 10.4 mph - N/A   Mostly Cloudy
7:35 PM 46.4 °F 41.9 °F 32.0 °F 57% 30.09 in 10.0 mi West 9.2 mph - N/A   Mostly Cloudy
7:55 PM 42.8 °F - 32.0 °F 66% 30.09 in 10.0 mi Calm Calm - N/A   Mostly Cloudy
8:15 PM 41.0 °F - 32.0 °F 70% 30.09 in 10.0 mi Calm Calm - N/A   Scattered Clouds
8:35 PM 39.2 °F - 32.0 °F 75% 30.09 in 10.0 mi Calm Calm - N/A   Clear
8:55 PM 41.0 °F 39.0 °F 32.0 °F 70% 30.09 in 10.0 mi WSW 3.5 mph - N/A   Clear
9:15 PM 35.6 °F 32.8 °F 32.0 °F 87% 30.09 in 10.0 mi West 3.5 mph - N/A   Clear
9:35 PM 35.6 °F - 32.0 °F 87% 30.11 in 10.0 mi Calm Calm - N/A   Clear
9:55 PM 35.6 °F 28.6 °F 30.2 °F 81% 30.11 in 10.0 mi NW 9.2 mph - N/A   Clear
10:15 PM 39.2 °F 34.2 °F 32.0 °F 75% 30.11 in 10.0 mi WNW 6.9 mph - N/A   Clear
10:35 PM 35.6 °F - 30.2 °F 81% 30.13 in 10.0 mi Calm Calm - N/A   Clear
10:55 PM 37.4 °F 34.9 °F 32.0 °F 81% 30.12 in 10.0 mi West 3.5 mph - N/A   Scattered Clouds
11:15 PM 37.4 °F - 32.0 °F 81% 30.11 in 10.0 mi Calm Calm - N/A   Scattered Clouds
11:35 PM 35.6 °F 32.8 °F 30.2 °F 81% 30.11 in 10.0 mi North 3.5 mph - N/A   Scattered Clouds
11:55 PM 37.4 °F 33.8 °F 32.0 °F 81% 30.09 in 10.0 mi NW 4.6 mph - N/A   Scattered Clouds